Location: Palestine
(34.9737°N, 87.4542°W)
Time: 11:17:25
(UTC+00:00)

HTV-X1 - Visible Passes

Search period start: 08 May 2026 00:00
Search period end: 18 May 2026 00:00
Orbit: 373 x 383 km, 51.6° (Epoch: 8 May)

Date Brightness Start Highest point End Pass type
(mag) Time Alt. Az. Time Alt. Az. Time Alt. Az.
8 May ? 02:10:03 10° SSW 02:11:31 24° SSW 02:11:31 24° SSW visible
8 May ? 08:38:45 10° N 08:40:43 15° NNE 08:42:41 10° ENE visible
8 May ? 10:13:47 10° WNW 10:16:48 49° SW 10:19:49 10° SSE visible
9 May ? 01:10:17 10° S 01:12:25 18° SE 01:14:35 10° E visible
9 May ? 02:45:22 10° W 02:48:08 30° NW 02:49:46 18° NNE visible
9 May ? 09:13:01 10° NW 09:16:04 54° NE 09:19:06 10° ESE visible
10 May ? 01:44:14 10° SW 01:47:18 83° NW 01:50:22 10° NE visible
10 May ? 03:22:50 10° NW 03:23:37 11° NNW 03:24:23 10° N visible
10 May ? 08:16:36 16° ENE 08:16:36 16° ENE 08:17:41 10° E visible
10 May ? 09:48:59 14° W 09:51:00 26° SW 09:53:39 10° S visible
11 May ? 02:20:09 10° W 02:22:30 20° NNW 02:24:51 10° NNE visible
12 May ? 01:18:33 10° WSW 01:21:30 44° NW 01:24:28 10° NE visible
13 May ? 01:55:08 10° WNW 01:56:48 14° NNW 01:58:27 10° N visible
